Location: Newark
(50.8636°N, 0.1571°E)
Time: 08:25:58
(UTC+00:00)

N. Korean satellite - Visible Passes

Search period start: 22 October 2019 00:00
Search period end: 01 November 2019 00:00
Orbit: 455 x 508 km, 97.2° (Epoch: 21 October)

Date Brightness Start Highest point End Pass type
(mag) Time Alt. Az. Time Alt. Az. Time Alt. Az.
22 Oct 8.6 05:30:44 10° NNE 05:34:04 34° E 05:37:26 10° SSE visible
22 Oct 9.2 17:44:46 10° SSW 17:47:39 25° W 17:50:34 10° NW visible
23 Oct 9.7 05:05:57 10° NE 05:08:37 19° E 05:11:17 10° SE visible
24 Oct 10.5 04:42:18 10° ENE 04:43:03 10° E 04:43:48 10° E visible
25 Oct 7.5 05:48:00 10° NNE 05:51:36 54° E 05:55:13 10° S visible
25 Oct 9.9 18:02:58 10° SW 18:05:14 16° W 18:07:31 10° NW visible
26 Oct 9.0 05:22:57 10° NNE 05:26:11 29° E 05:29:26 10° SSE visible
26 Oct 8.8 17:36:38 10° SSW 17:39:43 30° W 17:42:51 10° NNW visible
27 Oct 10.0 04:58:19 10° NE 05:00:40 16° E 05:03:02 10° SE visible
28 Oct 6.7 06:05:22 10° NNE 06:09:04 87° ESE 06:12:46 10° SSW visible
28 Oct 10.4 18:21:57 10° WSW 18:22:50 11° W 18:23:43 10° WNW visible
29 Oct 8.0 05:40:09 10° NNE 05:43:42 44° E 05:47:15 10° S visible
29 Oct 9.6 17:54:37 10° SW 17:57:14 20° W 17:59:54 10° NW visible
30 Oct 9.3 05:15:11 10° NE 05:18:15 24° E 05:21:19 10° SSE visible
30 Oct 8.3 17:28:29 10° SSW 17:31:44 36° W 17:35:04 10° NNW visible
31 Oct 10.2 04:50:45 10° ENE 04:52:42 14° E 04:54:39 10° ESE visible
